sat.trackr.live / text

‹ back to catalog

STARLINK-35772

NORAD 66976 · 2025-288T

PAYLOAD ACTIVE UNKNOWN

§ Identity

Operator
Country
US
Launch date
2025-12-08
Launch site
AFETR
Launch vehicle
Mass (kg)
RCS (m²)

Purposes: comms

External: N2YO · Heavens-Above · Gunter

§ Orbital elements

Epoch: 2026-05-25T03:57:54.958752Z

Period
94.27 min
Inclination
42.9989°
Eccentricity
0.0001652
Mean motion
15.27598410 rev/d
Perigee alt
481.9 km
Apogee alt
484.1 km
Semi-major
6,861.1 km
B*
5.6793e-4
RAAN
311.5830°
Arg perigee
272.0451°
Mean anomaly
88.0211°
Rev number
2,698

§ Raw data

STARLINK-357721 66976U 25288T   26145.16521943  .00015408  00000+0  56793-3 0  99982 66976  42.9989 311.5830 0001652 272.0451  88.0211 15.27598410 26980

JSON: /api/v1/satellites/66976 · /tle

For live sub-satellite position, see the globe view (requires WebGL).

§ Visibility from observer

Set your observer location to see the next 7 days of passes ≥ 10°. The values pass through the URL so the page stays shareable.

No JS? Fill the form by hand. The geolocation button needs JavaScript.